This is the latest recevied weather packets stored in our database for station/object KK7RJD. If no packets are shown the sender has not sent any weather packets the latest 10 day(s).
| Time | Temp. | Humidity | Pressure | Rain* | Wind** | Luminosity | Snow |
|---|---|---|---|---|---|---|---|
| 1777381034 | -2.78° C | 95% | 1015.6 hPa | 0 mm | - | 48 W/m² | - |
| 1777380730 | -3.89° C | 95% | 1015.6 hPa | 0 mm | - | 40 W/m² | - |
| 1777380427 | -4.44° C | 95% | 1015.7 hPa | 0 mm | - | 32 W/m² | - |
| 1777380124 | -3.89° C | 95% | 1015.8 hPa | 0 mm | - | 25 W/m² | - |
| 1777379820 | -3.89° C | 95% | 1015.6 hPa | 0 mm | - | 20 W/m² | - |
| 1777379515 | -3.89° C | 95% | 1015.3 hPa | 0 mm | - | 16 W/m² | - |
| 1777379211 | -4.44° C | 96% | 1015.2 hPa | 0 mm | - | 12 W/m² | - |
| 1777378906 | -4.44° C | 95% | 1015.3 hPa | 0 mm | - | 9 W/m² | - |
| 1777378603 | -4.44° C | 96% | 1015.3 hPa | 0 mm | - | 6 W/m² | - |
| 1777378299 | -4.44° C | 96% | 1015.6 hPa | 0 mm | - | 4 W/m² | - |
| 1777377998 | -5° C | 96% | 1015.4 hPa | 0 mm | - | 2 W/m² | - |
| 1777377698 | -5° C | 95% | 1015.1 hPa | 0 mm | - | 1 W/m² | - |
| 1777377393 | -5° C | 95% | 1015.3 hPa | 0 mm | - | 1 W/m² | - |
| 1777377090 | -4.44° C | 95% | 1015.3 hPa | 0 mm | - | 0 W/m² | - |
| 1777376787 | -4.44° C | 95% | 1015.1 hPa | 0 mm | - | 0 W/m² | - |
| 1777376484 | -4.44° C | 95% | 1015.3 hPa | 0 mm | - | 0 W/m² | - |
| 1777376180 | -4.44° C | 96% | 1015.2 hPa | 0 mm | - | 0 W/m² | - |
| 1777375875 | -5° C | 96% | 1015.3 hPa | 0 mm | - | 0 W/m² | - |
| 1777375569 | -5° C | 95% | 1015.1 hPa | 0 mm | - | 0 W/m² | - |
| 1777375265 | -4.44° C | 95% | 1015.3 hPa | 0 mm | - | 0 W/m² | - |
| 1777374961 | -4.44° C | 95% | 1015.2 hPa | 0 mm | - | 0 W/m² | - |
| 1777374657 | -4.44° C | 95% | 1015.2 hPa | 0 mm | - | 0 W/m² | - |
| 1777374354 | -3.89° C | 95% | 1015.1 hPa | 0 mm | - | 0 W/m² | - |
| 1777374050 | -4.44° C | 95% | 1015.2 hPa | 0 mm | - | 0 W/m² | - |
| 1777373746 | -4.44° C | 95% | 1015.2 hPa | 0 mm | - | 0 W/m² | - |
* Rain latest hour (hover to see other rain measurements)
** Current wind speed in m/s (hover to see current wind gust speed)